PRÉPARATION DES VOLS

Pour bien préparer vos sorties, pensez à télécharger la fiche technique de votre avion, la check-list, le manuel de vol, le devis de centrage ou encore un modèle de Log de Nav.

Piper PA19 (F-BOFY)

 

Type : 2 places train classique

Moteur : Continental 90 cv.

Performances : 140 km/h

Robin DR 400 (F-BXRY)

Type : 2/3 places en instruction & entraînement (devis de centrage).

Moteur : Lycoming 4 cyl. à plat, 108 cv.

Performances : 180 km/h

Autonomie : 4 h soit environ 720 km franchissables.

Avionique : 1 radio com Bendix/King, 1 VOR, 1 transpondeur.

Robin DR 400 120 (F-GSBN)

Type : 3/4 places instruction, entraînement, voyage.

Moteur : Lycoming 4 cyl. à plat, 120 cv.

Performances : 190 km/h

Autonomie : 4 h soit environ 760 km franchissables.

Avionique : 1 radio com Bendix/King, 1 VOR, 1 transpondeur mode S, intercom 2 voies type.

 

Robin DR 400 120 (F-GNNY)

Type : 3/4 places instruction, entraînement, voyage.

Moteur : Lycoming 4 cyl. à plat, 120 cv.

Performances : 190 km/h

Autonomie : 4 h soit environ 760 km franchissables.

Avionique : 1 radio com Bendix/King, 1 VOR, 1 transpondeur mode S, intercom 2 voies type.

 

Robin DR 400 140 B (F-GHPJ)

Type : 4 places, pour entraînement et voyage.

Moteur : Robin Lycoming 4 cyl. à plat, 160 cv.

Performances : 206 km/h

Autonomie : 3 h 30 min soit environ 720 km de distance franchissable.

Avionique : 1 radio com Bendix/King, 1 VOR, 1 transpondeur mode S, intercom 4 voies.

 

 

 

 

 

 

Robin DR 400 180 (F-HRNO)

 

Type :

Moteur :

Performances :

Autonomie :

Avionique :

 

Piper Archer II (PA 28) (F-GALA)

 

Type : 4 places, pour entraînement, voyage.

Moteur : Lycoming 4 cyl. à plat, 180 cv.

Performances : 220 km/h

Autonomie : 5 h30 soit environ 1200 km de distance franchissable.

Avionique : Radio intégrée au système GPS Garmin GNS 430, 2 VOR, 1 DME, 1 transpondeur mode S, pilote automatique 2 axes, intercom 4 voies et boite de mélange.

 

Télécharger l’aide mémoire de la radio GTR 225A

Télécharger l’aide mémoire de la radio GNC 255A

Télécharger un log de nav

Log 1

Cliquez sur le formulaire pour le télécharger

Log_1*Notice d’utilisation*

Ce Log de Nav a été optimisé pour rendre les calculs automatiques sous Excel. Indiquez simplement vos points de report, les altitudes et les distances en NM. La feuille calcule alors le temps sans vent pour chaque étape et donne le total, qu’elle convertit en heure-minutes. Elle calcule également la distance totale et la convertit en kilomètres. Enfin, elle affiche le résultat du devis carburant, calculé automatiquement par le 2ème feuillet. Vous pouvez également inscrire préalablement les fréquences Radio et Nav. Les autres cases sont à remplir pendant le vol : date, top départ, heure estimée (grisée), heure réelle,horamètre, Atis…
Bons vols à tous !
Guillaume

Log 2

Cliquez sur le formulaire pour le télécharger

Log_2

Log 3

 Cliquez sur le formulaire pour le télécharger

Log_3

L’alphabet Morse et l’alphabet international

Alphabet International

Nos coordonnées

Aéroclub Renault

Aérodrome de Chavenay

78450 Chavenay-Villepreux

telephone

Atis

Télécharger la VAC LFPX

 

Télécharger le calcul de centrage

Télécharger la feuille ATIS

Télécharger le mémo VFR 2020-2021

 

Télécharger le formulaire de prorogation SEP

METARS / TAF de Toussus, Evreux, Orly et Roissy

Toussus

LFPN 240100Z AUTO 25006KT CAVOK 21/16 Q1008

TAF TAF AMD LFPN 132015Z 1320/1420 17005KT 5000 BKN025 TEMPO 1320/1324 2000 BR OVC008 PROB30 TEMPO 1320/1324 0800 FG OVC002

Evreux

LFOE 240130Z AUTO 24008KT 9999 OVC036 20/16 Q1008

TAF TAF LFOE 240045Z 2400/2421 CNL

Orly

LFPO 240130Z 23007KT 9999 SCT023 SCT150 BKN200 22/17 Q1007 NOSIG

TAF LFPO 231700Z 2318/2424 09010KT CAVOK PROB40 TEMPO 2319/2322 4000 SHRA BKN060TCU PROB30 TEMPO 2320/2322 09015G30KT TSGRRA SCT050CB PROB30 TEMPO 2322/2404 4000 -TSRA BKN050CB PROB30 TEMPO 2400/2404 18015G35KT BECMG 2404/2406 24010KT PROB40 TEMPO 2413/2420 22015G25KT 4000 SHRA SCT040TCU PROB30 TEMPO 2414/2418 22015G35KT 2500 TSRA BKN040CB

Roissy

LFPG 240130Z 17003KT 120V210 CAVOK 21/14 Q1007 NOSIG

TAF AMD LFPG 240105Z 2401/2506 18007KT CAVOK TX25/2415Z TN17/2506Z PROB30 TEMPO 2401/2405 -SHRA BKN050TCU BECMG 2401/2403 25010KT PROB40 TEMPO 2412/2506 4000 SHRA BKN040TCU PROB30 TEMPO 2412/2418 23015G25KT 2500 TSRA BKN040CB PROB30 TEMPO 2500/2506 2500 TSRA BKN020CB

Share This